EHI
1 1 0 1 1 1 2 2 1 0 0 0 0 1 0 0 0 0 0 0 0 0 0 0 0 0 0 0 0 0 0 0 0 0 0 0 0 0
2 2 1 1 1 1 1 2 1 0 0 0 0 1 0 0 0 0 0 0 0 0 0 0 0 0 0 0 0 0 0 0 0 0 0 0 0 0
2 2 2 2 2 1 1 1 1 0 0 0 0 1 1 1 0 0 0 0 0 0 0 0 0 0 0 0 0 0 0 0 0 0 0 0 0 0
1 1 1 1 2 1 0 0 0 0 0 0 1 2 2 2 1 0 0 0 0 0 0 0 0 0 0 0 0 0 0 0 0 0 0 0 0 0
0 0 0 0 0 0 0 0 0 0 0 0 1 1 2 2 2 1 1 1 0 0 0 0 0 0 0 0 0 0 0 0 0 0 0 0 0 0
0 0 0 0 0 0 0 0 0 0 0 0 0 0 0 1 1 1 2 1 0 0 0 0 0 0 0 0 0 0 0 0 0 0 0 0 0 0
0 0 0 0 0 0 0 0 0 0 0 0 0 0 0 0 0 1 1 1 0 0 1 0 0 0 0 0 0 0 0 0 0 0 0 0 0 0
1 0 0 0 0 0 0 0 0 0 0 0 0 0 0 0 0 0 0 0 0 0 0 0 0 0 0 0 0 0 0 0 0 0 0 0 0 0
1 0 0 0 0 0 0 0 0 0 0 0 0 0 0 0 0 0 0 0 1 0 0 0 0 0 0 0 0 0 0 0 0 0 0 0 0 0
1 0 0 0 0 0 0 0 0 0 0 0 0 0 0 0 0 0 0 0 0 0 0 0 0 0 0 0 0 0 0 0 0 0 0 0 0 0
1 0 0 0 0 0 0 0 0 0 0 0 0 0 0 0 0 0 0 0 0 0 0 0 0 0 0 0 0 0 0 0 0 0 0 0 0 0
1 0 0 0 0 0 0 0 0 0 0 0 0 0 0 0 0 0 0 0 0 0 0 0 0 0 0 0 0 0 0 0 0 0 0 0 0 0
0 0 0 0 0 0 0 0 0 0 0 0 0 0 0 0 0 0 0 0 0 0 0 0 0 0 0 0 0 0 0 0 0 0 0 0 0 0
0 0 0 0 0 0 0 0 0 0 0 0 0 0 0 0 0 0 0 0 0 0 0 0 0 0 0 0 0 0 0 0 0 0 0 0 0 0
0 0 0 0 0 0 0 0 0 0 0 0 0 0 0 0 0 0 0 0 0 0 0 0 0 0 0 0 0 0 0 0 0 0 0 0 0 0
0 0 0 0 0 0 0 0 0 0 0 0 0 0 0 0 0 0 0 0 0 0 0 0 0 0 0 0 0 0 0 0 0 0 0 0 0 0
0 0 0 0 0 0 0 0 0 0 0 0 0 0 0 0 0 0 0 0 0 0 0 0 0 0 0 0 0 0 0 0 0 0 0 0 0 0
0 0 0 0 0 0 0 0 0 0 0 0 0 0 0 0 0 0 0 0 0 0 0 0 0 0 0 0 0 0 0 0 0 0 0 0 0 0
0 0 0 0 0 0 0 0 0 0 0 0 0 0 0 0 0 0 0 0 0 0 0 0 0 0 0 0 0 0 0 0 0 0 0 0 0 0
0 0 0 0 0 0 0 0 0 0 0 0 0 0 0 0 0 0 0 0 0 0 0 0 0 0 0 0 0 0 0 0 0 0 0 0 0 0
0 0 0 0 0 0 0 0 0 0 0 0 0 0 0 0 0 0 0 0 0 0 0 0 0 0 0 0 0 0 0 0 0 0 0 0 0 0
0 0 0 0 0 0 0 0 0 0 0 0 0 0 0 0 0 0 0 0 0 0 0 0 0 0 0 0 0 0 0 0 0 0 0 0 0 0
0 0 0 0 0 0 0 0 0 0 0 0 0 0 0 0 0 0 0 0 0 0 0 0 0 0 0 0 0 0 0 0 0 0 0 0 0 0
Wind_Speed
6 6 6 4 4 4 4 4 5 5 3 4 3 2 2 2 1 4 4 4 5 5 6 6 6 7 7 7 7 8 8 8 8 9 9 10 11 12
4 3 4 4 3 3 4 4 4 5 5 2 2 1 1 3 2 3 3 4 4 4 4 4 5 5 6 6 6 7 7 7 8 8 9 9 10 11
5 5 5 4 4 4 4 4 4 5 5 4 2 0 1 4 2 3 3 3 3 5 3 2 3 4 4 5 5 6 6 7 7 8 8 9 9 10
5 5 5 4 4 4 3 4 4 4 6 5 3 2 1 2 2 3 3 3 1 7 5 2 1 1 2 2 3 3 4 5 5 6 7 8 9 10
4 4 3 3 3 3 3 3 3 4 3 4 4 2 2 2 3 3 3 3 4 4 6 4 2 1 0 0 1 1 2 3 4 5 6 7 8 9
2 1 1 1 1 2 2 3 3 3 2 3 3 2 2 2 3 3 3 2 3 4 4 2 2 3 3 2 2 2 3 3 4 5 6 6 7 8
3 3 4 7 9 5 3 2 2 2 2 2 2 2 2 3 3 4 4 4 3 3 4 3 2 2 0 3 4 5 5 4 5 5 6 7 8 9
5 5 6 7 10 11 13 12 10 4 3 2 2 3 4 4 4 5 4 4 3 4 5 4 3 3 3 2 6 5 4 5 6 7 7 8 9 9
5 5 5 6 6 7 9 10 12 12 9 5 5 5 4 5 6 5 5 5 5 5 5 5 3 4 4 2 4 2 3 5 6 7 8 9 10 11
7 6 7 6 6 5 7 8 9 10 9 7 7 7 7 6 6 5 4 4 3 1 3 5 5 5 6 4 4 3 1 4 6 7 8 9 10 12
8 8 7 8 8 6 7 7 7 7 11 12 10 7 7 8 8 6 5 5 5 3 4 6 6 7 7 6 2 5 5 6 6 7 9 10 11 13
8 9 13 11 10 8 6 6 6 6 5 5 4 3 3 4 4 6 6 6 6 5 5 6 7 8 7 5 5 6 6 5 6 8 9 9 10 10
7 8 9 12 12 11 9 8 5 3 2 2 3 3 3 3 5 6 6 7 7 6 7 7 8 8 8 9 9 8 7 8 8 7 7 6 7 9
8 8 9 11 12 11 8 6 3 3 2 3 3 4 5 5 5 6 5 5 5 6 6 7 8 8 10 10 10 9 8 8 8 8 9 7 8 9
10 12 10 9 9 9 7 3 2 3 4 4 4 5 5 5 5 4 4 4 6 5 4 6 8 8 9 10 10 10 10 9 8 8 9 10 10 10
10 10 8 6 5 5 3 2 4 6 5 5 5 4 4 4 4 5 6 6 6 5 3 5 6 8 9 10 10 10 9 9 9 9 10 10 10 9
6 6 5 5 4 5 4 4 4 4 4 5 5 5 5 5 5 5 6 7 7 7 7 6 6 7 9 10 9 9 9 9 9 9 10 11 10 9
2 5 5 4 4 4 4 4 4 5 5 5 5 6 6 6 6 6 6 7 7 7 8 8 8 8 9 6 4 9 9 9 9 9 10 10 10 9
3 5 5 4 4 4 4 4 5 5 5 5 5 5 6 6 6 6 6 7 8 8 8 8 8 8 10 10 8 5 9 10 10 10 9 10 11 10
5 5 4 4 4 4 4 5 5 4 5 5 5 6 6 6 7 7 7 8 9 9 9 8 8 8 10 11 11 11 7 9 9 10 11 10 10 10
5 4 4 4 4 4 4 4 4 5 6 6 5 6 6 7 7 8 8 7 8 9 9 9 8 9 10 9 9 9 8 6 7 9 11 11 11 10
4 4 4 4 4 4 4 4 4 4 5 5 6 6 6 7 7 8 8 8 8 9 10 9 10 9 9 9 10 11 10 10 7 7 8 8 8 10
4 3 3 3 3 3 4 4 5 5 5 6 6 6 7 7 7 7 8 8 8 10 10 10 9 9 9 10 10 10 13 13 10 9 6 4 9 12
Wind_Direction
213 207 230 220 231 249 259 271 280 278 254 200 222 174 242 254 160 243 245 178 199 221 231 235 237 238 241 244 247 250 251 252 253 255 256 258 258 259
229 225 236 238 233 243 254 261 273 281 285 286 248 303 358 291 163 256 252 157 185 208 225 234 236 238 241 245 248 251 253 255 257 259 259 260 261 261
211 211 221 255 253 251 247 252 256 261 267 270 256 207 272 297 318 284 261 245 183 168 190 226 242 246 248 251 253 257 260 264 265 265 265 265 265 265
210 213 222 220 229 264 267 261 261 274 273 281 284 278 250 284 298 287 287 276 287 130 145 157 206 245 256 260 266 274 278 280 282 283 283 281 280 278
204 207 218 223 233 251 262 267 265 256 268 278 279 310 294 341 314 294 299 325 302 147 156 160 147 132 130 326 320 327 325 315 309 304 302 300 295 291
178 177 190 223 266 276 262 275 280 281 274 272 282 295 308 342 323 320 317 337 321 330 1 18 132 157 147 119 82 45 14 353 340 332 324 316 310 304
114 97 78 67 53 36 12 351 313 293 293 287 299 314 358 354 349 329 323 318 322 346 330 326 327 313 264 148 97 55 36 16 359 347 338 328 318 311
115 106 98 87 82 73 64 53 38 24 11 6 27 35 27 9 353 336 332 321 319 9 329 318 329 325 327 357 70 57 24 4 354 343 333 325 318 311
102 97 92 86 90 94 86 79 63 52 43 37 56 40 28 13 348 343 354 340 337 337 323 311 319 318 315 25 98 60 7 346 339 332 326 319 313 308
88 90 91 80 65 74 84 75 65 52 45 49 53 41 32 7 345 331 322 299 271 310 344 312 326 322 321 309 157 167 285 308 313 315 315 313 309 302
79 73 84 87 58 57 85 84 81 83 80 75 70 69 58 34 4 341 342 322 322 338 10 325 320 318 306 293 215 194 246 264 278 288 294 297 299 295
90 80 68 70 59 50 79 83 79 68 64 82 88 93 57 59 27 4 348 333 328 328 24 335 322 326 311 306 321 308 291 273 262 265 273 282 293 298
99 87 76 68 64 57 60 67 55 20 58 53 54 44 36 26 18 18 3 342 336 331 351 336 321 320 309 307 310 310 312 315 310 301 282 276 278 287
96 94 92 84 76 66 66 52 349 308 36 34 30 24 16 12 11 1 354 339 324 312 318 322 314 317 311 307 310 315 316 315 313 312 314 308 283 266
90 94 103 113 114 92 76 15 344 30 33 29 24 19 9 4 337 331 326 313 286 282 312 324 314 315 308 306 310 314 315 317 316 317 316 314 314 308
110 115 115 98 103 107 121 73 50 39 14 20 15 7 354 346 343 346 337 331 321 320 329 310 302 305 303 308 306 308 313 314 316 316 317 310 304 303
127 132 125 113 93 79 71 57 41 38 22 15 4 357 352 349 348 348 338 327 328 329 329 329 320 307 299 296 303 311 315 316 318 321 313 306 305 305
140 105 94 85 76 69 61 58 46 32 15 4 3 359 352 347 343 342 339 336 332 330 329 329 325 319 312 309 311 317 318 320 319 316 308 307 308 311
110 92 86 77 67 57 46 38 35 33 6 357 1 356 347 342 340 338 337 337 333 328 325 324 326 326 322 321 323 317 316 314 313 313 313 312 310 313
87 86 82 74 62 45 36 28 20 16 7 356 355 351 345 338 338 337 335 343 331 323 322 326 335 336 324 315 310 309 305 310 316 315 314 310 305 300
83 78 70 63 53 43 31 17 9 7 6 343 352 349 342 337 339 336 331 337 318 319 326 328 333 311 296 298 300 309 320 307 291 300 311 312 314 315
76 73 65 54 47 34 21 7 358 3 358 346 351 343 340 336 335 330 331 330 326 327 325 321 319 315 315 313 313 317 319 320 304 267 265 275 307 318
67 62 66 62 50 32 18 1 354 1 360 350 345 340 337 335 330 327 328 328 329 329 325 323 324 323 321 317 318 320 324 325 324 322 314 260 244 255